Погода в Помошной

Украина / Кировоградская область     48°14′35″N   31°24′21″E
темп.,
°C
ветер,
м/с
пор.,
м/с
влажн.,
%
обл.,
%
осадки,
мм/ч
давл.,
гПа
погр.,
м
24 мая, вт
вт2400:00+9ссв118346 0.1 101210
03:00+8с22855 0.1 101211
06:00+8сз228227 0.0 101314
09:00+14зсз34645 0.1 1013494
12:00+17ссз454325 0.1 10132257
15:00+18ссз55368 0.1 10132429
18:00+17с654016 0.0 10141465
21:00+11с22542 0.0 101617
25 мая, ср
ср2500:00+10с22601 0.0 101710
03:00+9с22705 0.0 101813
06:00+9с11701 0.0 101911
09:00+15сз22515 0.0 1019529
12:00+20ссз11395 0.0 10191826
15:00+21зюз123423 0.0 10182242
18:00+21зюз2236100 0.0 10182190
21:00+16ююв224797 0.0 101812
26 мая, чт
чт2600:00+14ююз4967100 0.0 1019211
03:00+14ююз51156100 0.0 1018369
06:00+14ю61258100 0.0 1016429
09:00+14ююз71467100 0.0 1016734
12:00+14юз6879100 0.2 1016654
15:00+20сз586492 0.4 10151399
18:00+19ссз695832 0.2 1016970
21:00+14ссз337498 0.2 101731
27 мая, пт
пт2700:00+13зсз33793 0.0 101842
03:00+12з35888 0.0 101877
06:00+13зюз377688 0.0 1018176
09:00+19зсз69565 0.0 1017886
12:00+23з6104553 0.0 10162220
15:00+23зюз5848100 0.0 10151857
18:00+22юз6951100 0.0 10131257
21:00+19ююз6125710 0.0 1013497
28 мая, сб
сб2800:00+16ююз7167579 0.0 1011411
03:00+16ююз7157119 0.1 1010492
06:00+13юз379213 0.0 1010203
09:00+17ссв3373100 0.2 1010572
12:00+16ссз3363100 0.3 1011532
15:00+16ссз4465100 0.3 1011477
18:00+15сз4565100 0.0 1013587
21:00+13ссз2568100 0.0 1014159